Content
SEND FEEDBACK

Daily
Averages
Monthly
Summary
United States of America

AGAT, GUAM


Home > North America > United States > Guam
Elevation: 364 feet     Latitude: 13 33N     Longitude: 144 50E

WEATHER
 
SELECT A DAY
Number of Records: 208,997;   Date Range: 1/1/95 - 7/26/14
 
SHARE

PRINT THIS DATA

[ ← Previous Day ]
WEATHER ALMANAC - FEBRUARY 9, 2013
[ Next Day → ]
[ °C ]   °F
Weather ElementAverageHighLow
Temperature80.2 °F84.2 °F (1:14 pm)75.2 °F (6:35 am)
Dewpoint73.5 °F75.2 °F (7:42 am)72 °F (4:54 am)
Humidity80.4 %94 % (6:35 am)69 % (1:54 pm)
Barometer29.90 in29.95 in (7:42 am)29.85 in (2:54 pm)
Wind Speed9.9 mph16.1 mph (1:54 pm)
Wind Gust23 mph (10:54 am)
Weather ElementAverage
Visibility9.7 mi
Wind DirectionE (90.3 °)

Weather ElementTotal
Precipitation0.15 in
Cooling Degree Days14.7 (Base 65)
Growing Degree Days29.7 (Base 50)
Averaged from 35 records on February 9, 2013
WEATHER CONDITIONS BREAKOUT
WIND DIRECTION BREAKOUT
WEATHER BY HOUR - FEBRUARY 9, 2013
[ °C ]   °F
Local TimeTemperatureDewpointHumidityBarometerVisibilityWind DirectionWind SpeedGust SpeedPrecipitationEventsConditions
1:54 AM77.0 °F73.9 °F90 %29.89 in10.0 miEast (80°)6.9 mph0.00 inScattered Clouds
2:54 AM77.0 °F73.0 °F88 %29.88 in10.0 miEast (80°)4.6 mphPartly Cloudy
3:54 AM77.0 °F73.9 °F90 %29.87 in10.0 miEast (90°)4.6 mph0.00 inPartly Cloudy
4:54 AM77.0 °F72.0 °F84 %29.88 in10.0 miEast (80°)5.8 mphMostly Cloudy
5:54 AM75.9 °F72.0 °F87 %29.89 in10.0 miEast (90°)5.8 mph0.00 inPartly Cloudy
6:35 AM75.2 °F73.4 °F94 %29.92 in4.0 miSSE (150°)3.5 mph0.04 inRainHeavy Rain
6:43 AM75.2 °F73.4 °F94 %29.93 in7.0 miESE (120°)4.6 mph0.05 inRainLight Rain
6:54 AM75.9 °F73.0 °F91 %29.91 in10.0 miVariable3.5 mph0.06 inMostly Cloudy
7:42 AM78.8 °F75.2 °F89 %29.95 in10.0 miENE (70°)6.9 mph0.00 inRainLight Rain
7:50 AM78.8 °F75.2 °F89 %29.95 in10.0 miENE (70°)6.9 mph0.00 inOvercast
7:54 AM79.0 °F75.0 °F88 %29.93 in10.0 miEast (80°)8.1 mph0.00 inOvercast
8:54 AM80.1 °F73.9 °F81 %29.94 in10.0 miEast (90°)12.7 mphPartly Cloudy
9:54 AM81.0 °F73.9 °F79 %29.94 in10.0 miESE (110°)15.0 mph21.9 mphScattered Clouds
10:54 AM82.0 °F73.0 °F74 %29.94 in10.0 miEast (100°)13.8 mph23.0 mphPartly Cloudy
11:54 AM82.9 °F73.0 °F72 %29.91 in10.0 miESE (120°)11.5 mph21.9 mphPartly Cloudy
12:54 PM82.9 °F73.0 °F72 %29.89 in10.0 miESE (110°)13.8 mph23.0 mphScattered Clouds
1:14 PM84.2 °F73.4 °F70 %29.91 in10.0 miESE (110°)12.7 mph21.9 mphMostly Cloudy
1:23 PM82.4 °F73.4 °F74 %29.91 in10.0 miESE (110°)15.0 mph20.7 mphScattered Clouds
1:35 PM82.4 °F73.4 °F74 %29.90 in10.0 miEast (100°)13.8 mph20.7 mphMostly Cloudy
1:46 PM82.4 °F73.4 °F74 %29.90 in10.0 miESE (110°)11.5 mphScattered Clouds
1:54 PM84.0 °F73.0 °F69 %29.87 in10.0 miEast (100°)16.1 mph21.9 mphScattered Clouds
2:54 PM82.9 °F73.0 °F72 %29.85 in10.0 miEast (100°)12.7 mph20.7 mphScattered Clouds
3:16 PM84.2 °F73.4 °F70 %29.87 in10.0 miEast (100°)13.8 mphMostly Cloudy
3:35 PM82.4 °F73.4 °F74 %29.87 in10.0 miEast (100°)11.5 mphScattered Clouds
3:43 PM82.4 °F73.4 °F74 %29.87 in10.0 miEast (80°)11.5 mphMostly Cloudy
3:54 PM84.0 °F73.0 °F69 %29.85 in10.0 miEast (80°)15.0 mphMostly Cloudy
4:23 PM82.4 °F73.4 °F74 %29.88 in10.0 miEast (90°)13.8 mph18.4 mphScattered Clouds
4:54 PM82.0 °F73.9 °F76 %29.86 in10.0 miEast (80°)15.0 mph20.7 mphScattered Clouds
5:54 PM81.0 °F73.9 °F79 %29.87 in10.0 miEast (90°)9.2 mphScattered Clouds
6:54 PM80.1 °F73.9 °F81 %29.88 in10.0 miEast (80°)8.1 mphScattered Clouds
7:54 PM79.0 °F73.9 °F84 %29.90 in10.0 miEast (80°)9.2 mphPartly Cloudy
8:54 PM79.0 °F73.9 °F84 %29.91 in10.0 miEast (90°)6.9 mphPartly Cloudy
9:54 PM79.0 °F73.9 °F84 %29.91 in10.0 miENE (70°)6.9 mphScattered Clouds
10:54 PM78.1 °F73.0 °F84 %29.91 in10.0 miEast (80°)8.1 mphScattered Clouds
11:54 PM78.1 °F73.9 °F87 %29.90 in10.0 miENE (70°)8.1 mphPartly Cloudy
Hourly data recorded from PGUM, located miles away from Agat, Guam







STORIES FROM OUR PARTNERS